map of LAD home
Great Circle Mapper logo
LAD - Airport
Location
City:  Luanda, Angola
Name:Aeroporto 4 de Fevereiro
ICAO:FNLU
IATA:LAD

Details
Type:Airport (Aerodrome, Airfield)
Use:Public/Civil, Military, International (customs port of entry)
Latitude:851'30"S (-8.858374)
Longitude:1313'52"E (13.231178)
Datum:other
Elevation:243 ft (74 m)
Variation:3.74W (WMM2015 magnetic declination)
0.17 annual change
Runways:2
Longest:12190 × 148 ft (3716 × 45 m), paved

Time
Time Zone:UTC+1
Local Time:

Weather
METAR:FNLU 301200Z 29008KT 9999 FEW024 28/21 Q1013 NOSIG
TAF:FNLU 301045Z 3012/3118 30010KT 9999 SCT023
TEMPO 3012/3019 23008KT CAVOK
BECMG 3019/3021 22008KT
BECMG 3100/3103 VRB03KT
TEMPO 3103/3111 13005KT 7000 SCT020 BKN025
BECMG 3111/3114 29010KT

Related Locations
Nearby:
Farthest:PLPA: 12062 mi / 19412 km
Palmyra Island Atoll [Palmyra Airport (Cooper)], UM

Find:

   beyond  
but within

Other Information
Maps:
NOTAMs:
Links:
Sources:

  
flag of Angola   

Sectional Chart

Flight Planning
at skyvector.com

Satellite Image

Google Maps Satellite view

 

Copyright © 2004-2016 Karl L. Swartz. All rights reserved.
The Great Circle Mapper name and logo are trademarks of the Great Circle Mapper.
All other trademarks mentioned herein belong to their respective owners.
Please see credits for attibutions and further copyright information.

  Follow gcmap on Facebook Follow gcmap on Twitter Follow gcmap on Google+ GCmap on LinkedIn

hCard Microformat

Geo Microformat